Stations météo

réclame
Mon MeteoGroup
UFS TW Ems, Allemagne (10004): Température de l'air & dewpoint: 10.12.2017 00:00:00 - 16.12.2017 00:00:00 (CET)UFS TW Ems, Allemagne (10004): Vitesse du vent & gusts: 10.12.2017 00:00:00 - 16.12.2017 00:00:00 (CET)UFS TW Ems, Allemagne (10004): reduced air pressure: 10.12.2017 00:00:00 - 16.12.2017 00:00:00 (CET)UFS TW Ems, Allemagne (10004): visibility: 10.12.2017 00:00:00 - 16.12.2017 00:00:00 (CET)UFS TW Ems, Allemagne (10004): Ensoleillement: 10.12.2017 00:00:00 - 16.12.2017 00:00:00 (CET)
Date & Time tt [°C] td [°C] ff [km/h] ff [knt] fx [km/h] fx [knt] ppp [hPa] vv [km] sd [min]
16.12.2017 00:00:00 7,3 2,5 36 19 47 25 1001,0 10 0
15.12.2017 23:00:00 7,6 2,0 29 16 54 29 1000,2 10 0
15.12.2017 22:00:00 6,2 2,5 40 21 - - 999,6 9 0
15.12.2017 21:00:00 5,3 2,9 7 4 - - 999,5 10 0
15.12.2017 20:00:00 5,3 3,2 14 8 - - 998,8 10 0
15.12.2017 19:00:00 4,6 3,0 14 8 - - 998,2 6 0
15.12.2017 18:00:00 6,0 3,0 18 10 - - 997,6 10 0
15.12.2017 17:00:00 5,8 2,1 11 6 - - 997,1 10 0
15.12.2017 16:00:00 5,5 2,6 14 8 - - 996,6 10 0
15.12.2017 15:00:00 5,0 2,5 18 10 - - 995,8 10 0
15.12.2017 14:00:00 5,3 3,2 18 10 - - 995,2 10 0
15.12.2017 13:00:00 5,1 2,8 18 10 - - 994,5 10 0
15.12.2017 12:00:00 4,9 3,1 18 10 - - 993,9 9 0
15.12.2017 11:00:00 4,5 3,0 22 12 - - 993,3 10 0
15.12.2017 10:00:00 4,8 3,4 22 12 - - 992,4 9 0
15.12.2017 09:00:00 4,7 3,3 25 14 - - 991,5 9 0
15.12.2017 08:00:00 4,9 3,5 29 16 - - 990,7 7 0
15.12.2017 07:00:00 5,5 4,1 29 16 - - 989,8 9 0
15.12.2017 06:00:00 5,9 4,0 29 16 - - 989,0 10 0
15.12.2017 05:00:00 5,8 3,8 25 14 - - 988,5 10 0
15.12.2017 04:00:00 5,5 3,7 29 16 - - 987,9 10 0
15.12.2017 03:00:00 6,1 4,0 29 16 - - 987,3 10 0
15.12.2017 02:00:00 6,2 3,5 32 18 47 25 986,9 10 0
15.12.2017 01:00:00 6,4 3,6 29 16 - - 986,7 10 0
15.12.2017 00:00:00 6,2 3,5 29 16 - - 986,2 10 0
14.12.2017 23:00:00 6,7 2,4 32 18 - - 985,9 10 0
14.12.2017 22:00:00 6,8 1,7 32 18 - - 985,8 10 0
14.12.2017 21:00:00 6,2 2,9 40 21 50 27 985,5 10 0
14.12.2017 20:00:00 6,0 2,5 40 21 47 25 985,8 10 0
14.12.2017 19:00:00 6,2 2,6 36 19 - - 985,6 10 0
14.12.2017 18:00:00 6,5 1,9 32 18 - - 985,8 10 0
14.12.2017 17:00:00 6,6 2,4 36 19 58 31 985,8 10 0
14.12.2017 16:00:00 6,6 2,1 36 19 - - 985,4 10 0
14.12.2017 15:00:00 6,7 1,3 36 19 54 29 985,3 10 0
14.12.2017 14:00:00 5,7 2,3 47 25 61 33 985,2 9 18
14.12.2017 13:00:00 6,8 1,4 40 21 - - 984,9 2,6 12
14.12.2017 12:00:00 5,8 2,0 43 23 68 37 984,8 7 0
14.12.2017 11:00:00 6,6 1,6 32 18 54 29 984,5 10 0
14.12.2017 10:00:00 6,4 2,1 40 21 - - 983,8 10 0
14.12.2017 09:00:00 5,0 1,2 25 14 61 33 983,9 9 0
14.12.2017 08:00:00 4,6 1,6 47 25 65 35 983,1 10 0
14.12.2017 07:00:00 6,8 1,0 40 21 - - 982,3 10 0
14.12.2017 06:00:00 6,8 1,0 47 25 58 31 981,7 10 0
14.12.2017 05:00:00 7,0 1,9 47 25 68 37 981,2 10 0
14.12.2017 04:00:00 6,9 2,4 50 27 - - 980,9 10 0
14.12.2017 03:00:00 7,2 1,3 54 29 72 39 980,5 10 0
14.12.2017 02:00:00 7,0 2,9 58 31 72 39 980,2 10 0
14.12.2017 01:00:00 6,7 3,6 50 27 - - 979,9 10 0
14.12.2017 00:00:00 5,4 3,2 54 29 76 41 979,2 4,4 0
13.12.2017 23:00:00 5,7 4,2 47 25 65 35 978,8 6 0
13.12.2017 22:00:00 6,0 4,9 47 25 - - 980,9 2,0 0
13.12.2017 21:00:00 6,6 5,4 50 27 65 35 982,3 7 0
13.12.2017 20:00:00 6,5 5,5 54 29 65 35 984,2 8 0
13.12.2017 19:00:00 7,1 6,1 43 23 - - 986,0 5 0
13.12.2017 18:00:00 7,3 6,3 43 23 50 27 987,4 9 0
13.12.2017 17:00:00 7,2 6,1 36 19 47 25 988,7 10 0
13.12.2017 16:00:00 6,7 5,7 40 21 - - 989,9 10 0
13.12.2017 15:00:00 6,5 5,5 43 23 65 35 990,6 10 0
13.12.2017 14:00:00 6,1 4,8 54 29 76 41 990,9 10 0
13.12.2017 13:00:00 5,6 4,6 58 31 - - 992,3 10 0
13.12.2017 12:00:00 - - - - - - - - -
13.12.2017 11:00:00 - - - - - - - - -
13.12.2017 10:00:00 5,1 3,6 65 35 - - 995,5 9 0
13.12.2017 09:00:00 5,2 3,4 68 37 86 47 996,6 9 0
13.12.2017 08:00:00 5,0 3,0 68 37 90 49 997,9 10 0
13.12.2017 07:00:00 5,3 3,4 61 33 - - 999,4 10 0
13.12.2017 06:00:00 5,0 2,9 61 33 76 41 1000,9 10 0
13.12.2017 05:00:00 4,9 2,8 58 31 72 39 1002,1 10 0
13.12.2017 04:00:00 5,0 2,5 61 33 - - 1003,4 10 0
13.12.2017 03:00:00 5,4 3,5 58 31 72 39 1004,1 10 0
13.12.2017 02:00:00 5,6 3,4 50 27 68 37 1004,4 9 0
13.12.2017 01:00:00 5,8 3,4 54 29 - - 1005,2 10 0
13.12.2017 00:00:00 6,7 3,1 54 29 65 35 1005,8 10 0
12.12.2017 23:00:00 6,5 3,6 50 27 65 35 1006,1 10 0
12.12.2017 22:00:00 7,2 1,7 47 25 - - 1006,2 10 0
12.12.2017 21:00:00 7,0 1,7 32 18 58 31 1006,2 10 0
12.12.2017 20:00:00 7,1 1,9 36 19 - - 1006,5 10 0
12.12.2017 19:00:00 6,8 0,8 29 16 - - 1006,4 10 0
12.12.2017 18:00:00 7,1 -0,4 32 18 47 25 1005,9 10 0
12.12.2017 17:00:00 6,6 1,6 36 19 47 25 1005,7 10 0
12.12.2017 16:00:00 6,6 -1,8 32 18 - - 1005,1 10 12
12.12.2017 15:00:00 6,5 -0,9 29 16 - - 1004,1 5 0
12.12.2017 14:00:00 6,5 -0,8 25 14 - - 1003,4 10 0
12.12.2017 13:00:00 6,1 -0,9 29 16 - - 1002,4 10 12
12.12.2017 12:00:00 6,0 -1,3 32 18 54 29 1001,8 10 12
12.12.2017 11:00:00 6,0 -0,4 43 23 61 33 1000,7 10 0
12.12.2017 10:00:00 4,8 2,2 36 19 - - 999,2 9 0
12.12.2017 09:00:00 5,3 2,3 36 19 65 35 997,6 10 0
12.12.2017 08:00:00 4,6 2,2 47 25 65 35 995,7 7 0
12.12.2017 07:00:00 4,3 2,9 43 23 - - 994,2 3,7 0
12.12.2017 06:00:00 4,4 2,1 40 21 61 33 992,5 10 0
12.12.2017 05:00:00 4,8 1,3 32 18 61 33 991,1 10 0
12.12.2017 04:00:00 5,5 -0,5 40 21 - - 989,7 10 0
12.12.2017 03:00:00 5,1 0,9 40 21 65 35 988,9 10 0
12.12.2017 02:00:00 4,6 -1,5 40 21 54 29 988,1 10 0
12.12.2017 01:00:00 4,5 -1,9 43 23 - - 987,4 10 0
12.12.2017 00:00:00 4,3 -1,9 47 25 61 33 987,2 10 0
11.12.2017 23:00:00 4,4 -1,3 50 27 65 35 986,8 10 0
11.12.2017 22:00:00 4,0 -0,6 54 29 - - 986,3 9 0
11.12.2017 21:00:00 4,2 0,3 50 27 65 35 986,2 10 0
11.12.2017 20:00:00 3,4 0,0 50 27 68 37 985,5 10 0
11.12.2017 19:00:00 2,8 0,1 58 31 - - 985,4 10 0
11.12.2017 18:00:00 2,8 1,4 50 27 65 35 985,0 9 0
11.12.2017 17:00:00 3,1 -0,3 47 25 58 31 984,9 10 0
11.12.2017 16:00:00 3,8 -1,4 40 21 - - 985,5 10 0
11.12.2017 15:00:00 3,7 -2,0 43 23 54 29 983,9 10 0
11.12.2017 14:00:00 3,6 -1,5 43 23 50 27 984,8 10 0
11.12.2017 13:00:00 4,0 -0,5 36 19 - - 985,6 10 0
11.12.2017 12:00:00 3,8 -1,5 32 18 - - 986,2 10 0
11.12.2017 11:00:00 3,8 -1,2 32 18 - - 986,8 10 0
11.12.2017 10:00:00 4,2 -0,9 25 14 - - 986,3 10 0
11.12.2017 09:00:00 4,2 -0,8 25 14 - - 985,2 10 0
11.12.2017 08:00:00 3,6 -0,9 22 12 - - 984,3 10 0
11.12.2017 07:00:00 3,6 -1,7 22 12 - - 984,7 10 0
11.12.2017 06:00:00 3,8 -0,1 22 12 - - 985,7 10 0
11.12.2017 05:00:00 3,6 -0,7 18 10 - - 984,9 10 0
11.12.2017 04:00:00 3,8 -1,0 18 10 - - 983,5 10 0
11.12.2017 03:00:00 3,5 -1,3 22 12 - - 982,6 10 0
11.12.2017 02:00:00 3,3 -1,2 29 16 - - 980,9 10 0
11.12.2017 01:00:00 3,3 -1,2 29 16 - - 980,2 10 0
11.12.2017 00:00:00 3,6 -0,5 32 18 - - 978,9 10 0
10.12.2017 23:00:00 3,5 0,0 29 16 50 27 978,1 10 0
10.12.2017 22:00:00 3,1 0,4 32 18 - - 977,5 10 0
10.12.2017 21:00:00 2,8 0,7 36 19 50 27 977,0 10 0
10.12.2017 20:00:00 3,8 0,3 43 23 54 29 976,6 10 0
10.12.2017 19:00:00 3,3 0,7 40 21 - - 976,7 10 0
10.12.2017 18:00:00 3,2 0,8 32 18 47 25 977,3 9 0
10.12.2017 17:00:00 2,5 1,1 36 19 47 25 978,3 8 0
10.12.2017 16:00:00 2,5 1,5 36 19 - - 979,0 7 0
10.12.2017 15:00:00 2,4 - 29 16 - - 979,7 9 0
10.12.2017 14:00:00 - - - - - - - - -
10.12.2017 13:00:00 2,8 - 32 18 - - 983,0 10 0
10.12.2017 12:00:00 3,0 0,7 36 19 - - 984,8 10 0
10.12.2017 11:00:00 3,2 1,3 43 23 54 29 986,3 10 0
10.12.2017 10:00:00 2,9 0,9 36 19 - - 987,8 10 0
10.12.2017 09:00:00 3,2 1,1 18 10 - - 989,4 9 0
10.12.2017 08:00:00 3,6 -0,1 29 16 54 29 990,4 10 0
10.12.2017 07:00:00 2,7 -0,1 36 19 - - 991,8 10 0
10.12.2017 06:00:00 2,9 0,7 43 23 58 31 992,9 9 0
10.12.2017 05:00:00 4,1 0,9 43 23 72 39 993,9 10 0
10.12.2017 04:00:00 4,7 1,3 29 16 - - 995,4 10 0
10.12.2017 03:00:00 4,6 0,4 43 23 54 29 996,5 10 0
10.12.2017 02:00:00 3,7 2,3 40 21 72 39 997,6 9 0
10.12.2017 01:00:00 3,5 0,6 40 21 - - 998,6 9 0
10.12.2017 00:00:00 3,7 1,0 50 27 68 37 999,2 10 0

tt = Température de l'air
td = dewpoint
ff = Vitesse du vent
fx = gusts
ppp = reduced air pressure
vv = visibility
sd = Ensoleillement

stations d'obs. à proximité